Regional Weather Roundup
Issued by NWS Albany, NY

Current Version | Previous Version | Graphics & Text | Print | Product List | Glossary Off
Versions: 1 2 3 4 5 6 7 8 9 10 11 12 13 14 15 16 17 18 19 20 21 22 23 24 25 26 27 28 29 30 31 32 33 34 35 36 37 38 39 40 41 42 43 44 45 46 47 48 49 50

000
ASUS41 KALY 180510
RWRALY

NEW YORK STATE HOURLY WEATHER ROUNDUP
NATIONAL WEATHER SERVICE ALBANY NY
100 AM EDT SAT APR 18 2015

NOTE: "FAIR" INDICATES FEW OR NO CLOUDS BELOW 12,000 FEET WITH NO
SIGNIFICANT WEATHER AND/OR NO OBSTRUCTIONS TO VISIBILITY.

NYZ032-033-038>043-046>054-057>066-NYZ062>081-180600-
EAST


CITY           SKY/WX    TMP DP  RH WIND       PRES   REMARKS
ALBANY         CLEAR     50  44  80 CALM      29.97S
GLENS FALLS    CLEAR     49  40  71 S3        29.95R
POUGHKEEPSIE   CLEAR     48  45  89 E3        29.97S
NEWBURGH       CLEAR     50  46  87 W7        30.00R
MONTGOMERY     CLEAR     50  43  77 CALM      29.98R
WHITE PLAINS   CLEAR     54  46  74 NW7       29.97S
ISLIP          PTCLDY    57  51  80 NW8       29.95S
NEW YORK CITY  PTCLDY    62  45  53 N9        29.97S
CENTRAL PARK   CLEAR     63  47  55 N6        30.00S
$$

NYZ005>009-017-018-044>046-055-056-180600-
CENTRAL


CITY           SKY/WX    TMP DP  RH WIND       PRES   REMARKS
FULTON         CLEAR     49  42  77 W3        29.98S
SYRACUSE       PTCLDY    48  45  89 SW5       29.98S
ROME           CLEAR     39  38  96 CALM      30.00R
ELMIRA         CLEAR     39  38  96 W3        30.01S
BINGHAMTON     CLEAR     50  45  83 SW3       30.00S
MONTICELLO     CLEAR     48  43  81 NW3       30.01F
$$

NYZ026>034-041>043-180600-
NORTH


CITY           SKY/WX    TMP DP  RH WIND       PRES   REMARKS
WATERTOWN      CLEAR     48  44  86 S6        29.96S FOG
FORT DRUM      NOT AVBL
MASSENA        MOCLDY    45  42  89 CALM      29.96R
SARANAC LAKE   MOCLDY    33  31  92 CALM      29.94R
PLATTSBURGH    CLOUDY    53  41  63 NE13      29.94R
$$

NYZ001>004-010>016-019>021-180600-
WEST


CITY           SKY/WX    TMP DP  RH WIND       PRES   REMARKS
NIAGARA FALLS  CLEAR     41  38  89 S7        30.00F FOG
BUFFALO        CLEAR     46  42  86 SW10      30.01F
DUNKIRK        CLEAR     44  43  96 SW3       30.02F FOG
JAMESTOWN      CLEAR     50  39  66 CALM      30.04F
WELLSVILLE     CLEAR     48  40  73 W8        30.04F
ROCHESTER      CLEAR     49  44  83 W7        30.00S
PENN YAN       CLEAR     46  41  82 SW6       30.00S
$$

             KEY
       WCI = WIND CHILL INDEX
       VSB = VISIBILITY
       HX  = HEAT INDEX
$$



USA.gov is the U.S. government's official web portal to all federal, state and local government web resources and services.